| time (UTC) | temp F | wind direction | speed MPH | gust MPH | rain 1hr in | rain 24hr in | rain mn in | humidity % | barometer mb |
| 20260507010508 | 54 | 0 | 0.0 | 3.0 | 0.00 | 0.00 | 0.00 | 61 | 1015.8 |
| 20260507010032 | 54 | 158 | 1.0 | 3.0 | 0.00 | 0.00 | 0.00 | 62 | 1015.8 |
| 20260507005510 | 55 | 202 | 1.0 | 3.0 | 0.00 | 0.00 | 0.00 | 62 | 1015.8 |
| 20260507005013 | 55 | 150 | 0.0 | 3.0 | 0.00 | 0.00 | 0.00 | 63 | 1015.9 |
| 20260507004525 | 55 | 224 | 1.0 | 2.0 | 0.00 | 0.00 | 0.00 | 63 | 1015.9 |
| 20260507004015 | 56 | 235 | 1.0 | 2.0 | 0.00 | 0.00 | 0.00 | 64 | 1015.8 |
| 20260507003509 | 57 | 0 | 0.0 | 2.0 | 0.00 | 0.00 | 0.00 | 69 | 1015.9 |
| 20260507003027 | 56 | 0 | 0.0 | 2.0 | 0.00 | 0.00 | 0.00 | 65 | 1016.0 |
| 20260507001017 | 57 | 184 | 1.0 | 3.0 | 0.00 | 0.00 | 0.00 | 61 | 1016.0 |
| 20260507000508 | 58 | 229 | 0.0 | 2.0 | 0.00 | 0.00 | 0.00 | 59 | 1016.0 |
| 20260507000035 | 58 | 205 | 0.0 | 7.0 | 0.00 | 0.00 | 0.00 | 59 | 1016.1 |
| 20260506235509 | 59 | 0 | 0.0 | 7.0 | 0.00 | 0.00 | 0.00 | 60 | 1016.0 |
| 20260506235010 | 60 | 226 | 2.0 | 9.0 | 0.00 | 0.00 | 0.00 | 67 | 1016.1 |
| 20260506234527 | 59 | 265 | 3.0 | 9.0 | 0.00 | 0.00 | 0.00 | 71 | 1016.1 |
| 20260506234010 | 58 | 268 | 1.0 | 6.0 | 0.00 | 0.00 | 0.00 | 66 | 1016.0 |
| 20260506233510 | 57 | 279 | 1.0 | 3.0 | 0.00 | 0.00 | 0.00 | 64 | 1016.1 |
| 20260506233026 | 57 | 0 | 0.0 | 2.0 | 0.00 | 0.00 | 0.00 | 61 | 1016.0 |
| 20260506232510 | 57 | 0 | 0.0 | 4.0 | 0.00 | 0.00 | 0.00 | 61 | 1016.0 |
| 20260506231528 | 57 | 0 | 0.0 | 5.0 | 0.00 | 0.00 | 0.00 | 62 | 1016.0 |
| 20260506230510 | 59 | 304 | 0.0 | 5.0 | 0.00 | 0.00 | 0.00 | 72 | 1016.2 |
| 20260506225510 | 57 | 0 | 0.0 | 2.0 | 0.00 | 0.00 | 0.00 | 67 | 1016.2 |
| 20260506225008 | 56 | 238 | 1.0 | 2.0 | 0.00 | 0.00 | 0.00 | 63 | 1016.3 |
| 20260506224529 | 57 | 0 | 1.0 | 3.0 | 0.00 | 0.00 | 0.00 | 62 | 1016.2 |
| 20260506224008 | 57 | 0 | 0.0 | 3.0 | 0.00 | 0.00 | 0.00 | 61 | 1016.4 |
| 20260506223511 | 57 | 240 | 0.0 | 3.0 | 0.00 | 0.00 | 0.00 | 61 | 1016.3 |
| 20260506223026 | 57 | 175 | 1.0 | 3.0 | 0.00 | 0.00 | 0.00 | 63 | 1016.3 |
| 20260506222509 | 57 | 0 | 0.0 | 3.0 | 0.00 | 0.00 | 0.00 | 64 | 1016.3 |
| 20260506222009 | 57 | 147 | 1.0 | 2.0 | 0.00 | 0.00 | 0.00 | 64 | 1016.3 |
| 20260506221526 | 57 | 151 | 0.0 | 2.0 | 0.00 | 0.00 | 0.00 | 60 | 1016.3 |
| 20260506221014 | 58 | 220 | 0.0 | 2.0 | 0.00 | 0.00 | 0.00 | 63 | 1016.3 |
| 20260506220511 | 57 | 210 | 0.0 | 2.0 | 0.00 | 0.00 | 0.00 | 60 | 1016.3 |
| 20260506220026 | 57 | 206 | 1.0 | 2.0 | 0.00 | 0.00 | 0.00 | 59 | 1016.1 |
| 20260506215511 | 58 | 0 | 1.0 | 2.0 | 0.00 | 0.00 | 0.00 | 59 | 1016.2 |
| 20260506215008 | 58 | 162 | 0.0 | 2.0 | 0.00 | 0.00 | 0.00 | 59 | 1016.2 |
| 20260506214528 | 59 | 0 | 0.0 | 2.0 | 0.00 | 0.00 | 0.00 | 60 | 1016.3 |
| 20260506214009 | 60 | 0 | 0.0 | 2.0 | 0.00 | 0.00 | 0.00 | 62 | 1016.4 |
| 20260506213511 | 61 | 203 | 0.0 | 3.0 | 0.00 | 0.00 | 0.00 | 70 | 1016.4 |
| 20260506213112 | 61 | 0 | 0.0 | 5.0 | 0.00 | 0.00 | 0.00 | 71 | 1016.3 |
| 20260506212510 | 62 | 266 | 1.0 | 5.0 | 0.00 | 0.00 | 0.00 | 72 | 1016.4 |
| 20260506212009 | 62 | 317 | 0.0 | 4.0 | 0.00 | 0.00 | 0.00 | 70 | 1016.5 |
| 20260506211527 | 62 | 0 | 1.0 | 10.0 | 0.00 | 0.00 | 0.00 | 69 | 1016.5 |
| 20260506211010 | 62 | 304 | 2.0 | 10.0 | 0.00 | 0.00 | 0.00 | 69 | 1016.6 |
| 20260506210508 | 63 | 293 | 2.0 | 8.0 | 0.00 | 0.00 | 0.00 | 68 | 1016.7 |
| 20260506210028 | 63 | 356 | 2.0 | 5.0 | 0.00 | 0.00 | 0.00 | 59 | 1016.7 |
| 20260506205510 | 63 | 0 | 0.0 | 4.0 | 0.00 | 0.00 | 0.00 | 40 | 1016.7 |
| 20260506205012 | 64 | 139 | 0.0 | 4.0 | 0.00 | 0.00 | 0.00 | 40 | 1016.5 |
| 20260506204529 | 64 | 122 | 2.0 | 7.0 | 0.00 | 0.00 | 0.00 | 41 | 1016.5 |
| 20260506204010 | 64 | 106 | 2.0 | 7.0 | 0.00 | 0.00 | 0.00 | 45 | 1016.7 |
| 20260506203517 | 63 | 76 | 4.0 | 7.0 | 0.00 | 0.00 | 0.00 | 45 | 1016.7 |
| 20260506203026 | 63 | 113 | 2.0 | 5.0 | 0.00 | 0.00 | 0.00 | 43 | 1016.6 |
| 20260506202512 | 63 | 84 | 2.0 | 4.0 | 0.00 | 0.00 | 0.00 | 42 | 1016.6 |
| 20260506202012 | 63 | 101 | 1.0 | 2.0 | 0.00 | 0.00 | 0.00 | 41 | 1016.6 |
| 20260506201526 | 63 | 167 | 0.0 | 4.0 | 0.00 | 0.00 | 0.00 | 42 | 1016.6 |
| 20260506201008 | 63 | 226 | 0.0 | 4.0 | 0.00 | 0.00 | 0.00 | 41 | 1016.6 |
| 20260506200512 | 63 | 236 | 2.0 | 4.0 | 0.00 | 0.00 | 0.00 | 40 | 1016.5 |
| 20260506200025 | 64 | 131 | 0.0 | 3.0 | 0.00 | 0.00 | 0.00 | 40 | 1016.4 |
| 20260506195510 | 63 | 73 | 0.0 | 2.0 | 0.00 | 0.00 | 0.00 | 41 | 1016.3 |
| 20260506195010 | 64 | 144 | 0.0 | 4.0 | 0.00 | 0.00 | 0.00 | 40 | 1016.3 |
| 20260506194526 | 64 | 153 | 1.0 | 4.0 | 0.00 | 0.00 | 0.00 | 39 | 1016.2 |
| 20260506194010 | 65 | 155 | 1.0 | 4.0 | 0.00 | 0.00 | 0.00 | 39 | 1016.1 |
| 20260506193511 | 65 | 142 | 0.0 | 3.0 | 0.00 | 0.00 | 0.00 | 37 | 1016.2 |
| 20260506193031 | 65 | 68 | 1.0 | 3.0 | 0.00 | 0.00 | 0.00 | 36 | 1016.3 |
| 20260506192514 | 65 | 0 | 1.0 | 3.0 | 0.00 | 0.00 | 0.00 | 36 | 1016.2 |
| 20260506192013 | 65 | 173 | 1.0 | 5.0 | 0.00 | 0.00 | 0.00 | 36 | 1016.2 |
| 20260506191528 | 66 | 125 | 2.0 | 5.0 | 0.00 | 0.00 | 0.00 | 35 | 1016.1 |
| 20260506191010 | 66 | 119 | 2.0 | 5.0 | 0.00 | 0.00 | 0.00 | 36 | 1016.1 |
| 20260506190509 | 66 | 0 | 0.0 | 5.0 | 0.00 | 0.00 | 0.00 | 35 | 1016.0 |
| 20260506190025 | 67 | 91 | 3.0 | 5.0 | 0.00 | 0.00 | 0.00 | 33 | 1016.0 |
| 20260506185509 | 69 | 62 | 1.0 | 4.0 | 0.00 | 0.00 | 0.00 | 31 | 1016.0 |
| 20260506185009 | 69 | 0 | 0.0 | 3.0 | 0.00 | 0.00 | 0.00 | 28 | 1015.9 |
| 20260506184527 | 69 | 272 | 1.0 | 6.0 | 0.00 | 0.00 | 0.00 | 27 | 1015.8 |
| 20260506184011 | 70 | 239 | 2.0 | 7.0 | 0.00 | 0.00 | 0.00 | 27 | 1015.7 |
| 20260506183513 | 70 | 264 | 1.0 | 7.0 | 0.00 | 0.00 | 0.00 | 27 | 1015.7 |
| 20260506183028 | 70 | 236 | 2.0 | 7.0 | 0.00 | 0.00 | 0.00 | 27 | 1015.5 |
| 20260506182511 | 70 | 259 | 1.0 | 6.0 | 0.00 | 0.00 | 0.00 | 28 | 1015.4 |
| 20260506182010 | 70 | 252 | 2.0 | 8.0 | 0.00 | 0.00 | 0.00 | 28 | 1015.4 |
| 20260506181530 | 70 | 248 | 1.0 | 8.0 | 0.00 | 0.00 | 0.00 | 28 | 1015.3 |
| 20260506181015 | 70 | 296 | 1.0 | 7.0 | 0.00 | 0.00 | 0.00 | 27 | 1015.4 |
| 20260506180515 | 70 | 269 | 1.0 | 5.0 | 0.00 | 0.00 | 0.00 | 27 | 1015.4 |
| 20260506180034 | 70 | 303 | 1.0 | 7.0 | 0.00 | 0.00 | 0.00 | 27 | 1015.3 |
| 20260506175513 | 70 | 263 | 1.0 | 7.0 | 0.00 | 0.00 | 0.00 | 27 | 1015.2 |
| 20260506175008 | 70 | 301 | 0.0 | 5.0 | 0.00 | 0.00 | 0.00 | 27 | 1015.2 |
| 20260506174528 | 71 | 275 | 1.0 | 5.0 | 0.00 | 0.00 | 0.00 | 26 | 1015.2 |
| 20260506174010 | 71 | 290 | 1.0 | 5.0 | 0.00 | 0.00 | 0.00 | 25 | 1015.0 |
| 20260506173512 | 71 | 265 | 1.0 | 5.0 | 0.00 | 0.00 | 0.00 | 25 | 1015.1 |
| 20260506173028 | 71 | 261 | 2.0 | 6.0 | 0.00 | 0.00 | 0.00 | 25 | 1015.0 |
| 20260506172511 | 71 | 300 | 1.0 | 6.0 | 0.00 | 0.00 | 0.00 | 25 | 1015.0 |
| 20260506172013 | 71 | 294 | 1.0 | 8.0 | 0.00 | 0.00 | 0.00 | 24 | 1015.0 |
| 20260506171527 | 72 | 295 | 2.0 | 8.0 | 0.00 | 0.00 | 0.00 | 24 | 1014.9 |
| 20260506171010 | 72 | 241 | 2.0 | 7.0 | 0.00 | 0.00 | 0.00 | 24 | 1014.8 |
| 20260506170511 | 72 | 304 | 1.0 | 10.0 | 0.00 | 0.00 | 0.00 | 24 | 1014.7 |
| 20260506170028 | 72 | 349 | 2.0 | 10.0 | 0.00 | 0.00 | 0.00 | 24 | 1014.7 |
| 20260506165513 | 72 | 256 | 3.0 | 10.0 | 0.00 | 0.00 | 0.00 | 23 | 1014.7 |
| 20260506165012 | 72 | 285 | 3.0 | 9.0 | 0.00 | 0.00 | 0.00 | 24 | 1014.6 |
| 20260506164529 | 72 | 285 | 3.0 | 10.0 | 0.00 | 0.00 | 0.00 | 24 | 1014.6 |
| 20260506164012 | 72 | 302 | 4.0 | 11.0 | 0.00 | 0.00 | 0.00 | 24 | 1014.6 |
| 20260506163512 | 72 | 288 | 5.0 | 11.0 | 0.00 | 0.00 | 0.00 | 25 | 1014.5 |
| 20260506163050 | 72 | 288 | 4.0 | 11.0 | 0.00 | 0.00 | 0.00 | 25 | 1014.6 |
| 20260506162514 | 72 | 303 | 3.0 | 11.0 | 0.00 | 0.00 | 0.00 | 24 | 1014.6 |
| 20260506162015 | 73 | 314 | 3.0 | 11.0 | 0.00 | 0.00 | 0.00 | 24 | 1014.5 |
| 20260506161527 | 73 | 323 | 4.0 | 13.0 | 0.00 | 0.00 | 0.00 | 23 | 1014.5 |
| 20260506161010 | 73 | 308 | 4.0 | 13.0 | 0.00 | 0.00 | 0.00 | 23 | 1014.5 |
| 20260506160511 | 73 | 309 | 3.0 | 16.0 | 0.00 | 0.00 | 0.00 | 24 | 1014.6 |
| 20260506160026 | 73 | 343 | 6.0 | 16.0 | 0.00 | 0.00 | 0.00 | 24 | 1014.4 |
| 20260506155509 | 73 | 259 | 3.0 | 12.0 | 0.00 | 0.00 | 0.00 | 24 | 1014.5 |
| 20260506155012 | 73 | 325 | 4.0 | 11.0 | 0.00 | 0.00 | 0.00 | 24 | 1014.4 |
| 20260506154528 | 73 | 270 | 3.0 | 11.0 | 0.00 | 0.00 | 0.00 | 26 | 1014.4 |
| 20260506154012 | 74 | 319 | 5.0 | 11.0 | 0.00 | 0.00 | 0.00 | 25 | 1014.4 |
| 20260506153512 | 74 | 261 | 3.0 | 11.0 | 0.00 | 0.00 | 0.00 | 25 | 1014.5 |
| 20260506153028 | 74 | 301 | 3.0 | 9.0 | 0.00 | 0.00 | 0.00 | 25 | 1014.5 |
| 20260506152513 | 74 | 285 | 3.0 | 15.0 | 0.00 | 0.00 | 0.00 | 24 | 1014.3 |
| 20260506152014 | 74 | 303 | 4.0 | 15.0 | 0.00 | 0.00 | 0.00 | 27 | 1014.3 |
| 20260506151528 | 74 | 307 | 4.0 | 15.0 | 0.00 | 0.00 | 0.00 | 28 | 1014.4 |
| 20260506151010 | 74 | 217 | 3.0 | 12.0 | 0.00 | 0.00 | 0.00 | 27 | 1014.5 |
| 20260506150511 | 74 | 309 | 2.0 | 13.0 | 0.00 | 0.00 | 0.00 | 25 | 1014.5 |
| 20260506150027 | 74 | 335 | 3.0 | 13.0 | 0.00 | 0.00 | 0.00 | 24 | 1014.4 |
| 20260506145515 | 75 | 276 | 3.0 | 12.0 | 0.00 | 0.00 | 0.00 | 24 | 1014.4 |
| 20260506145009 | 75 | 311 | 3.0 | 16.0 | 0.00 | 0.00 | 0.00 | 24 | 1014.4 |
| 20260506144530 | 75 | 290 | 5.0 | 16.0 | 0.00 | 0.00 | 0.00 | 22 | 1014.4 |
| 20260506144008 | 75 | 314 | 5.0 | 16.0 | 0.00 | 0.00 | 0.00 | 22 | 1014.3 |
| 20260506143515 | 76 | 307 | 4.0 | 12.0 | 0.00 | 0.00 | 0.00 | 21 | 1014.3 |
| 20260506143035 | 76 | 266 | 4.0 | 16.0 | 0.00 | 0.00 | 0.00 | 22 | 1014.3 |
| 20260506142512 | 76 | 309 | 4.0 | 16.0 | 0.00 | 0.00 | 0.00 | 21 | 1014.4 |
| 20260506141526 | 76 | 302 | 5.0 | 18.0 | 0.00 | 0.00 | 0.00 | 22 | 1014.2 |
| 20260506141008 | 76 | 267 | 5.0 | 12.0 | 0.00 | 0.00 | 0.00 | 23 | 1014.2 |
| 20260506140513 | 76 | 295 | 4.0 | 20.0 | 0.00 | 0.00 | 0.00 | 24 | 1014.1 |
| 20260506140028 | 77 | 266 | 4.0 | 20.0 | 0.00 | 0.00 | 0.00 | 24 | 1014.2 |
| 20260506135510 | 77 | 288 | 7.0 | 20.0 | 0.00 | 0.00 | 0.00 | 26 | 1014.2 |
| 20260506135013 | 77 | 316 | 5.0 | 14.0 | 0.00 | 0.00 | 0.00 | 26 | 1014.1 |
| 20260506134527 | 77 | 301 | 6.0 | 17.0 | 0.00 | 0.00 | 0.00 | 25 | 1014.0 |
| 20260506134016 | 76 | 300 | 7.0 | 19.0 | 0.00 | 0.00 | 0.00 | 27 | 1014.2 |
| 20260506133508 | 77 | 322 | 6.0 | 19.0 | 0.00 | 0.00 | 0.00 | 27 | 1014.1 |
| 20260506133026 | 77 | 316 | 4.0 | 16.0 | 0.00 | 0.00 | 0.00 | 28 | 1014.1 |
| 20260506132511 | 76 | 303 | 6.0 | 16.0 | 0.00 | 0.00 | 0.00 | 28 | 1014.3 |
| 20260506132013 | 77 | 326 | 6.0 | 15.0 | 0.00 | 0.00 | 0.00 | 26 | 1014.2 |
| 20260506131527 | 77 | 239 | 5.0 | 18.0 | 0.00 | 0.00 | 0.00 | 29 | 1014.3 |
| 20260506131007 | 77 | 277 | 7.0 | 18.0 | 0.00 | 0.00 | 0.00 | 29 | 1014.3 |
| 20260506130513 | 77 | 269 | 5.0 | 18.0 | 0.00 | 0.00 | 0.00 | 29 | 1014.3 |
| 20260506130026 | 77 | 291 | 7.0 | 15.0 | 0.00 | 0.00 | 0.00 | 23 | 1014.2 |
| 20260506125507 | 77 | 312 | 4.0 | 20.0 | 0.00 | 0.00 | 0.00 | 24 | 1014.3 |
| 20260506125008 | 77 | 321 | 8.0 | 20.0 | 0.00 | 0.00 | 0.00 | 25 | 1014.5 |
| 20260506124525 | 77 | 310 | 5.0 | 21.0 | 0.00 | 0.00 | 0.00 | 23 | 1014.5 |
| 20260506124010 | 76 | 289 | 7.0 | 21.0 | 0.00 | 0.00 | 0.00 | 24 | 1014.5 |
| 20260506123509 | 76 | 300 | 7.0 | 21.0 | 0.00 | 0.00 | 0.00 | 25 | 1014.5 |
| 20260506123027 | 76 | 288 | 10.0 | 19.0 | 0.00 | 0.00 | 0.00 | 28 | 1014.5 |
| 20260506122512 | 76 | 316 | 8.0 | 20.0 | 0.00 | 0.00 | 0.00 | 31 | 1014.6 |
| 20260506122009 | 76 | 302 | 8.0 | 20.0 | 0.00 | 0.00 | 0.00 | 32 | 1014.7 |
| 20260506121530 | 77 | 38 | 6.0 | 20.0 | 0.00 | 0.00 | 0.00 | 29 | 1014.5 |
| 20260506121010 | 77 | 296 | 5.0 | 15.0 | 0.00 | 0.00 | 0.00 | 31 | 1014.4 |
| 20260506120511 | 77 | 334 | 6.0 | 18.0 | 0.00 | 0.00 | 0.00 | 32 | 1014.5 |
| 20260506120027 | 76 | 14 | 9.0 | 22.0 | 0.00 | 0.00 | 0.00 | 29 | 1014.6 |
| 20260506115509 | 77 | 240 | 9.0 | 22.0 | 0.00 | 0.00 | 0.00 | 25 | 1014.4 |
| 20260506115013 | 77 | 318 | 7.0 | 17.0 | 0.00 | 0.00 | 0.00 | 22 | 1014.5 |
| 20260506114533 | 79 | 328 | 8.0 | 17.0 | 0.00 | 0.00 | 0.00 | 19 | 1014.5 |
| 20260506114008 | 80 | 326 | 5.0 | 15.0 | 0.00 | 0.00 | 0.00 | 20 | 1014.5 |
| 20260506113510 | 80 | 309 | 4.0 | 13.0 | 0.00 | 0.00 | 0.00 | 19 | 1014.6 |
| 20260506113028 | 79 | 328 | 5.0 | 16.0 | 0.00 | 0.00 | 0.00 | 19 | 1014.6 |
| 20260506112514 | 79 | 266 | 5.0 | 21.0 | 0.00 | 0.00 | 0.00 | 21 | 1014.6 |
| 20260506112016 | 79 | 293 | 7.0 | 21.0 | 0.00 | 0.00 | 0.00 | 19 | 1014.8 |
| 20260506111525 | 79 | 317 | 6.0 | 21.0 | 0.00 | 0.00 | 0.00 | 20 | 1014.9 |
| 20260506111011 | 78 | 312 | 4.0 | 14.0 | 0.00 | 0.00 | 0.00 | 21 | 1014.8 |
| 20260506110510 | 77 | 351 | 5.0 | 18.0 | 0.00 | 0.00 | 0.00 | 22 | 1015.0 |
| 20260506110031 | 76 | 307 | 7.0 | 18.0 | 0.00 | 0.00 | 0.00 | 25 | 1015.0 |
| 20260506105508 | 76 | 302 | 9.0 | 18.0 | 0.00 | 0.00 | 0.00 | 26 | 1015.0 |
| 20260506105009 | 76 | 8 | 10.0 | 20.0 | 0.00 | 0.00 | 0.00 | 28 | 1015.1 |
| 20260506104525 | 75 | 304 | 10.0 | 20.0 | 0.00 | 0.00 | 0.00 | 29 | 1015.1 |
| 20260506104011 | 75 | 323 | 10.0 | 20.0 | 0.00 | 0.00 | 0.00 | 29 | 1015.1 |
| 20260506103508 | 75 | 323 | 10.0 | 19.0 | 0.00 | 0.00 | 0.00 | 29 | 1015.3 |
| 20260506103029 | 75 | 290 | 10.0 | 21.0 | 0.00 | 0.00 | 0.00 | 29 | 1015.4 |
| 20260506102511 | 75 | 314 | 10.0 | 21.0 | 0.00 | 0.00 | 0.00 | 32 | 1015.4 |
| 20260506102019 | 75 | 313 | 11.0 | 21.0 | 0.00 | 0.00 | 0.00 | 33 | 1015.3 |
| 20260506101533 | 74 | 336 | 10.0 | 18.0 | 0.00 | 0.00 | 0.00 | 33 | 1015.4 |
| 20260506101011 | 74 | 295 | 9.0 | 19.0 | 0.00 | 0.00 | 0.00 | 32 | 1015.4 |
| 20260506100510 | 74 | 323 | 10.0 | 19.0 | 0.00 | 0.00 | 0.00 | 34 | 1015.4 |
| 20260506100025 | 74 | 329 | 10.0 | 14.0 | 0.00 | 0.00 | 0.00 | 36 | 1015.4 |
| 20260506095508 | 74 | 301 | 5.0 | 13.0 | 0.00 | 0.00 | 0.00 | 37 | 1015.5 |
| 20260506095017 | 74 | 316 | 7.0 | 13.0 | 0.00 | 0.00 | 0.00 | 36 | 1015.5 |
| 20260506094527 | 74 | 319 | 7.0 | 16.0 | 0.00 | 0.00 | 0.00 | 36 | 1015.5 |
| 20260506094009 | 74 | 321 | 8.0 | 18.0 | 0.00 | 0.00 | 0.00 | 37 | 1015.5 |
| 20260506093512 | 74 | 286 | 7.0 | 18.0 | 0.00 | 0.00 | 0.00 | 38 | 1015.5 |
| 20260506093031 | 74 | 269 | 9.0 | 16.0 | 0.00 | 0.00 | 0.00 | 38 | 1015.6 |
| 20260506092509 | 74 | 306 | 8.0 | 16.0 | 0.00 | 0.00 | 0.00 | 39 | 1015.7 |
| 20260506092013 | 75 | 334 | 7.0 | 14.0 | 0.00 | 0.00 | 0.00 | 37 | 1015.8 |
| 20260506091528 | 75 | 328 | 7.0 | 14.0 | 0.00 | 0.00 | 0.00 | 35 | 1015.8 |
| 20260506091010 | 75 | 309 | 7.0 | 15.0 | 0.00 | 0.00 | 0.00 | 35 | 1015.7 |
| 20260506090507 | 74 | 338 | 8.0 | 15.0 | 0.00 | 0.00 | 0.00 | 35 | 1015.8 |
| 20260506090027 | 74 | 317 | 8.0 | 15.0 | 0.00 | 0.00 | 0.00 | 35 | 1015.7 |
| 20260506085511 | 74 | 283 | 9.0 | 14.0 | 0.00 | 0.00 | 0.00 | 37 | 1015.7 |
| 20260506085010 | 73 | 341 | 9.0 | 16.0 | 0.00 | 0.00 | 0.00 | 38 | 1015.8 |
| 20260506084526 | 73 | 312 | 8.0 | 17.0 | 0.00 | 0.00 | 0.00 | 38 | 1015.7 |
| 20260506084010 | 73 | 290 | 10.0 | 17.0 | 0.00 | 0.00 | 0.00 | 38 | 1015.7 |
| 20260506083509 | 73 | 3 | 7.0 | 16.0 | 0.00 | 0.00 | 0.00 | 40 | 1015.8 |
| 20260506083027 | 73 | 291 | 8.0 | 16.0 | 0.00 | 0.00 | 0.00 | 39 | 1015.7 |
| 20260506082508 | 72 | 329 | 8.0 | 19.0 | 0.00 | 0.00 | 0.00 | 40 | 1015.8 |
| 20260506082012 | 72 | 320 | 7.0 | 19.0 | 0.00 | 0.00 | 0.00 | 41 | 1015.7 |
| 20260506081528 | 72 | 317 | 9.0 | 19.0 | 0.00 | 0.00 | 0.00 | 41 | 1015.8 |
| 20260506081011 | 72 | 251 | 9.0 | 15.0 | 0.00 | 0.00 | 0.00 | 38 | 1015.7 |
| 20260506080513 | 71 | 280 | 8.0 | 15.0 | 0.00 | 0.00 | 0.00 | 43 | 1015.7 |
| 20260506073512 | 70 | 330 | 8.0 | 14.0 | 0.00 | 0.00 | 0.00 | 48 | 1015.6 |
| 20260506073025 | 71 | 327 | 7.0 | 13.0 | 0.00 | 0.00 | 0.00 | 51 | 1015.7 |
| 20260506072512 | 70 | 349 | 6.0 | 15.0 | 0.00 | 0.00 | 0.00 | 47 | 1015.8 |
| 20260506072011 | 70 | 334 | 7.0 | 15.0 | 0.00 | 0.00 | 0.00 | 46 | 1015.8 |
| 20260506071530 | 70 | 320 | 6.0 | 11.0 | 0.00 | 0.00 | 0.00 | 54 | 1015.9 |
| 20260506071012 | 70 | 308 | 6.0 | 11.0 | 0.00 | 0.00 | 0.00 | 46 | 1015.9 |
| 20260506070509 | 69 | 339 | 6.0 | 11.0 | 0.00 | 0.00 | 0.00 | 51 | 1015.8 |
| 20260506062512 | 63 | 313 | 10.0 | 16.0 | 0.00 | 0.00 | 0.00 | 80 | 1016.1 |
| 20260506062013 | 63 | 271 | 7.0 | 15.0 | 0.00 | 0.00 | 0.00 | 80 | 1016.1 |
| 20260506061533 | 63 | 306 | 7.0 | 15.0 | 0.00 | 0.00 | 0.00 | 80 | 1016.0 |
| 20260506061010 | 63 | 333 | 7.0 | 14.0 | 0.00 | 0.00 | 0.00 | 80 | 1015.9 |
| 20260506060511 | 63 | 294 | 7.0 | 17.0 | 0.00 | 0.00 | 0.00 | 81 | 1015.9 |
| 20260506051011 | 61 | 328 | 6.0 | 15.0 | 0.00 | 0.00 | 0.00 | 83 | 1015.8 |
| 20260506050513 | 61 | 331 | 7.0 | 15.0 | 0.00 | 0.00 | 0.00 | 83 | 1015.7 |
| 20260506045011 | 61 | 327 | 5.0 | 12.0 | 0.00 | 0.00 | 0.00 | 83 | 1015.7 |
| 20260506044533 | 61 | 318 | 4.0 | 14.0 | 0.00 | 0.00 | 0.00 | 84 | 1015.7 |
| 20260506044016 | 61 | 302 | 7.0 | 14.0 | 0.00 | 0.00 | 0.00 | 84 | 1015.6 |
| 20260506043027 | 61 | 294 | 3.0 | 7.0 | 0.00 | 0.00 | 0.00 | 82 | 1015.6 |
| 20260506042511 | 61 | 274 | 3.0 | 7.0 | 0.00 | 0.00 | 0.00 | 82 | 1015.5 |
| 20260506042016 | 60 | 305 | 2.0 | 7.0 | 0.00 | 0.00 | 0.00 | 82 | 1015.6 |
| 20260506041526 | 59 | 283 | 2.0 | 7.0 | 0.00 | 0.00 | 0.00 | 79 | 1015.7 |
| 20260506041012 | 59 | 292 | 2.0 | 10.0 | 0.00 | 0.00 | 0.00 | 80 | 1015.6 |
| 20260506040508 | 60 | 304 | 4.0 | 10.0 | 0.00 | 0.00 | 0.00 | 83 | 1015.5 |
| 20260506040048 | 58 | 295 | 1.0 | 4.0 | 0.00 | 0.00 | 0.00 | 69 | 1015.5 |
| 20260506035510 | 58 | 224 | 1.0 | 5.0 | 0.00 | 0.00 | 0.00 | 69 | 1015.5 |
| 20260506035013 | 58 | 254 | 1.0 | 5.0 | 0.00 | 0.00 | 0.00 | 74 | 1015.5 |
| 20260506034528 | 59 | 297 | 2.0 | 7.0 | 0.00 | 0.00 | 0.00 | 79 | 1015.5 |
| 20260506034009 | 58 | 322 | 2.0 | 7.0 | 0.00 | 0.00 | 0.00 | 81 | 1015.5 |
| 20260506033507 | 56 | 0 | 0.0 | 1.0 | 0.00 | 0.00 | 0.00 | 68 | 1015.5 |
| 20260506033026 | 56 | 206 | 0.0 | 2.0 | 0.00 | 0.00 | 0.00 | 68 | 1015.4 |
| 20260506032510 | 57 | 221 | 0.0 | 3.0 | 0.00 | 0.00 | 0.00 | 67 | 1015.4 |
| 20260506032011 | 57 | 194 | 1.0 | 3.0 | 0.00 | 0.00 | 0.00 | 69 | 1015.4 |
| 20260506031541 | 57 | 0 | 0.0 | 3.0 | 0.00 | 0.00 | 0.00 | 70 | 1015.4 |
| 20260506031015 | 57 | 339 | 0.0 | 3.0 | 0.00 | 0.00 | 0.00 | 69 | 1015.5 |
| 20260506030512 | 57 | 153 | 1.0 | 2.0 | 0.00 | 0.00 | 0.00 | 68 | 1015.4 |
| 20260506030029 | 58 | 190 | 0.0 | 2.0 | 0.00 | 0.00 | 0.00 | 67 | 1015.4 |
| 20260506025510 | 58 | 158 | 1.0 | 2.0 | 0.00 | 0.00 | 0.00 | 66 | 1015.4 |
| 20260506025014 | 58 | 226 | 0.0 | 3.0 | 0.00 | 0.00 | 0.00 | 65 | 1015.4 |
| 20260506024529 | 58 | 0 | 0.0 | 3.0 | 0.00 | 0.00 | 0.00 | 65 | 1015.4 |
| 20260506024010 | 59 | 204 | 0.0 | 2.0 | 0.00 | 0.00 | 0.00 | 64 | 1015.4 |
| 20260506023512 | 59 | 0 | 0.0 | 2.0 | 0.00 | 0.00 | 0.00 | 65 | 1015.4 |
| 20260506023027 | 59 | 207 | 0.0 | 2.0 | 0.00 | 0.00 | 0.00 | 64 | 1015.4 |
| 20260506022509 | 59 | 0 | 0.0 | 0.0 | 0.00 | 0.00 | 0.00 | 66 | 1015.4 |
| 20260506022009 | 60 | 0 | 0.0 | 1.0 | 0.00 | 0.00 | 0.00 | 65 | 1015.4 |
| 20260506021528 | 60 | 0 | 0.0 | 1.0 | 0.00 | 0.00 | 0.00 | 66 | 1015.4 |
| 20260506021009 | 60 | 0 | 0.0 | 1.0 | 0.00 | 0.00 | 0.00 | 66 | 1015.5 |
| 20260506020512 | 60 | 0 | 0.0 | 2.0 | 0.00 | 0.00 | 0.00 | 66 | 1015.5 |
| 20260506020029 | 60 | 0 | 0.0 | 2.0 | 0.00 | 0.00 | 0.00 | 66 | 1015.5 |
| 20260506015513 | 61 | 212 | 0.0 | 8.0 | 0.00 | 0.00 | 0.00 | 70 | 1015.6 |
| 20260506015013 | 61 | 289 | 2.0 | 8.0 | 0.00 | 0.00 | 0.00 | 75 | 1015.6 |
| 20260506014532 | 61 | 301 | 3.0 | 7.0 | 0.00 | 0.00 | 0.00 | 75 | 1015.5 |
| 20260506014013 | 62 | 331 | 1.0 | 4.0 | 0.00 | 0.00 | 0.00 | 73 | 1015.6 |
| 20260506013514 | 62 | 319 | 0.0 | 2.0 | 0.00 | 0.00 | 0.00 | 73 | 1015.6 |
| 20260506013029 | 61 | 318 | 1.0 | 2.0 | 0.00 | 0.00 | 0.00 | 72 | 1015.6 |
| 20260506012512 | 61 | 30 | 1.0 | 2.0 | 0.00 | 0.00 | 0.00 | 73 | 1015.6 |
| 20260506012013 | 61 | 226 | 0.0 | 1.0 | 0.00 | 0.00 | 0.00 | 72 | 1015.6 |
| 20260506011530 | 61 | 224 | 0.0 | 3.0 | 0.00 | 0.00 | 0.00 | 71 | 1015.7 |
| 20260506011013 | 61 | 0 | 0.0 | 4.0 | 0.00 | 0.00 | 0.00 | 71 | 1015.7 |